Flag for Canada Weather past 2 weeks in Lethbridge, Alberta, Canada

Now
68 °F

Passing clouds.


Feels Like: 68 °F
Forecast: 48 / 83 °F
Wind: 10 mph from West

Location: Lethbridge

Current Time: Sep 22, 2014 at 10:45:48 AM

Latest Report: Sep 22, 2014 at 10:00 AM


Visibility: 40 mi

Pressure: 29.86 "Hg

Humidity: 46%

Dew point: 46 °F

Location of LethbridgeLocation

Historic Weather in Lethbridge — Graph

°F

Lethbridge temperature yesterday

Maximum temperature yesterday: 81 °F (at 4:00 PM)
Minimum temperature yesterday: 39 °F (at 5:00 AM)
Average temperature yesterday: 58 °F

Past Weeks' High & Low Weather Summary

 TemperatureHumidityPressure
High82 °F (Sep 17, 4:00 PM)100% (Sep 8, 1:00 PM)30.66 "Hg (Sep 8, 1:00 PM)
Low30 °F (Sep 12, 7:00 AM)20% (Sep 17, 4:00 PM)29.54 "Hg (Sep 18, 3:00 PM)
Average51 °F68%30.07 "Hg
* Reported Sep 7 10:00 AM — Sep 22 10:00 AM, Lethbridge, Weather by CustomWeather, © 2014

Note: Actual official high and low records may vary slightly from our data, if they occured in-between our weather recording intervals... More about our weather records

Advertising

Lethbridge weather history for previous 24 hours

 ConditionsComfort  
Time TempWeatherWind HumidityBarometerVisibility
10:00 AM
Sep 22
68 °FPassing clouds.10 mph46%29.86 "Hg40 mi
9:00 AM59 °FPassing clouds.7 mph59%29.86 "Hg40 mi
8:00 AM48 °FPassing clouds.8 mph76%29.88 "Hg40 mi
7:00 AM52 °FPassing clouds.6 mph67%29.84 "Hg40 mi
6:00 AM48 °FClear.3 mph76%29.84 "Hg25 mi
5:00 AM48 °FClear.7 mph76%29.84 "Hg9 mi
4:00 AM46 °FClear.8 mph87%29.85 "Hg9 mi
3:00 AM52 °FClear.5 mph77%29.85 "Hg9 mi
2:00 AM57 °FClear.7 mph63%29.86 "Hg9 mi
1:00 AM61 °FClear.16 mph55%29.86 "Hg9 mi
12:00 AM61 °FClear.18 mph55%29.88 "Hg9 mi
11:00 PM
Sep 21
57 °FClear.8 mph59%29.92 "Hg9 mi
10:00 PM54 °FPassing clouds.7 mph72%29.95 "Hg15 mi
9:00 PM55 °FPassing clouds.9 mph67%29.97 "Hg15 mi
8:00 PM59 °FPassing clouds.9 mph59%29.98 "Hg40 mi
7:00 PM70 °FPassing clouds.10 mph40%29.98 "Hg40 mi
6:00 PM79 °FSunny.12 mph28%29.98 "Hg40 mi
5:00 PM79 °FSunny.16 mph30%30.00 "Hg40 mi
4:00 PM81 °FSunny.14 mph26%30.02 "Hg40 mi
3:00 PM79 °FSunny.14 mph28%30.04 "Hg40 mi
2:00 PM77 °FSunny.22 mph30%30.07 "Hg40 mi
1:00 PM75 °FSunny.21 mph31%30.10 "Hg40 mi
12:00 PM72 °FSunny.16 mph38%30.14 "Hg40 mi
11:00 AM66 °FSunny.7 mph49%30.16 "Hg40 mi
10:00 AM59 °FSunny.6 mph63%30.19 "Hg40 mi
Weather by CustomWeather, © 2014

See weather overviewHow to use our weather pages